DW7564 Weather Reports


time (UTC)temp
C
wind
direction
speed
KPH
gust
KPH
rain 1hr
cm
rain 24hr
cm
rain mn
cm
humidity
%
barometer
mb
20260508013041 20 110 0.0 4.8 0.00 0.00 0.00 36 1015.2
20260508011539 20 261 4.8 11.3 0.00 0.00 0.00 38 1015.3
20260508010036 20 290 1.6 8.0 0.00 0.00 0.00 40 1015.5
20260508004534 20 355 1.6 11.3 0.00 0.00 0.00 39 1015.7
20260508003031 20 269 6.4 12.9 0.00 0.00 0.00 39 1015.7
20260508001530 20 198 8.0 14.5 0.00 0.00 0.00 42 1015.9
20260508000014 19 277 4.8 16.1 0.00 0.00 0.00 44 1016.0
20260507234524 20 276 8.0 16.1 0.00 0.00 0.00 42 1016.0
20260507233013 20 246 9.7 14.5 0.00 0.00 0.00 47 1016.2
20260507231506 19 299 8.0 14.5 0.00 0.00 0.00 49 1016.2
20260507230013 19 285 6.4 17.7 0.00 0.00 0.00 51 1016.4
20260507224502 19 275 4.8 12.9 0.00 0.00 0.00 49 1016.6
20260507223116 18 302 8.0 14.5 0.00 0.00 0.00 55 1016.7
20260507221600 18 312 6.4 16.1 0.00 0.00 0.00 56 1016.7
20260507220058 19 279 8.0 16.1 0.00 0.00 0.00 55 1016.8
20260507214542 18 22 1.6 9.7 0.00 0.00 0.00 60 1017.0
20260507213042 18 5 4.8 14.5 0.00 0.00 0.00 59 1017.2
20260507211546 18 51 6.4 12.9 0.00 0.00 0.00 63 1017.3
20260507210047 18 275 3.2 16.1 0.00 0.00 0.00 63 1017.5
20260507204533 18 30 4.8 14.5 0.00 0.00 0.00 64 1017.6
20260507203027 17 56 3.2 16.1 0.00 0.00 0.00 64 1017.8
20260507201525 17 71 8.0 12.9 0.00 0.00 0.00 66 1017.9
20260507200022 16 28 1.6 9.7 0.00 0.00 0.00 67 1018.1
20260507194523 16 66 1.6 6.4 0.00 0.00 0.00 67 1018.3
20260507193004 15 329 4.8 9.7 0.00 0.00 0.00 69 1018.5
20260507191501 15 104 4.8 9.7 0.00 0.00 0.00 71 1018.7
20260507190113 14 25 3.2 9.7 0.00 0.00 0.00 72 1018.9
20260507184557 14 78 6.4 11.3 0.00 0.00 0.00 71 1019.0
20260507183113 13 45 3.2 11.3 0.00 0.00 0.00 73 1019.1
20260507181559 13 69 3.2 8.0 0.00 0.00 0.00 74 1019.2
20260507180053 12 331 1.6 8.0 0.00 0.00 0.00 78 1019.4
20260507174535 12 43 0.0 9.7 0.00 0.00 0.00 79 1019.5
20260507173042 11 355 0.0 6.4 0.00 0.00 0.00 78 1019.6
20260507171526 11 324 1.6 6.4 0.00 0.00 0.00 80 1019.6
20260507170026 11 350 1.6 8.0 0.00 0.00 0.00 80 1019.6
20260507164534 11 28 1.6 11.3 0.00 0.00 0.00 79 1019.6
20260507163025 11 360 3.2 8.0 0.00 0.00 0.00 80 1019.6
20260507161524 10 9 3.2 11.3 0.00 0.00 0.00 80 1019.5
20260507160026 10 5 1.6 6.4 0.00 0.00 0.00 82 1019.5
20260507154511 10 36 0.0 8.0 0.00 0.00 0.00 82 1019.5
20260507153011 10 355 1.6 9.7 0.00 0.00 0.00 82 1019.6
20260507151510 10 336 3.2 8.0 0.00 0.00 0.00 83 1019.6
20260507150010 9 11 1.6 8.0 0.00 0.00 0.00 83 1019.6
20260507144509 9 360 4.8 9.7 0.00 0.00 0.00 84 1019.6
20260507143017 9 355 0.0 6.4 0.00 0.00 0.00 85 1019.6
20260507141515 9 344 0.0 6.4 0.00 0.00 0.00 85 1019.5
20260507140006 9 5 0.0 6.4 0.00 0.00 0.00 86 1019.3
20260507134548 9 42 0.0 6.4 0.00 0.00 0.00 86 1019.2
20260507133049 9 350 0.0 0.0 0.00 0.00 0.00 87 1019.2
20260507131529 9 342 0.0 0.0 0.00 0.00 0.00 87 1019.2
20260507130037 9 18 0.0 6.4 0.00 0.00 0.00 87 1019.3
20260507124535 9 5 0.0 6.4 0.00 0.00 0.00 87 1019.3
20260507123025 9 20 0.0 4.8 0.00 0.00 0.00 86 1019.2
20260507121524 9 18 1.6 6.4 0.00 0.00 0.00 87 1019.3
20260507120023 10 21 0.0 0.0 0.00 0.00 0.00 87 1019.3
20260507114530 10 22 0.0 0.0 0.00 0.00 0.00 86 1019.4
20260507113038 10 22 0.0 0.0 0.00 0.00 0.00 87 1019.5
20260507111507 10 22 0.0 8.0 0.00 0.00 0.00 87 1019.5
20260507110010 10 355 0.0 4.8 0.00 0.00 0.00 87 1019.6
20260507104506 10 355 0.0 3.2 0.00 0.00 0.00 87 1019.7
20260507103004 10 355 3.2 8.0 0.00 0.00 0.00 87 1019.7
20260507101510 10 40 0.0 1.6 0.00 0.00 0.00 87 1019.8
20260507100004 10 40 0.0 4.8 0.00 0.00 0.00 87 1019.8
20260507094501 10 53 0.0 0.0 0.00 0.00 0.00 87 1019.9
20260507093001 10 53 0.0 0.0 0.00 0.00 0.00 87 1020.0
20260507091556 10 53 0.0 0.0 0.00 0.00 0.00 87 1020.0
20260507090048 10 53 0.0 0.0 0.00 0.00 0.00 87 1020.1
20260507084550 10 53 3.2 8.0 0.00 0.00 0.00 87 1020.2
20260507083044 10 55 4.8 8.0 0.00 0.00 0.00 86 1020.2
20260507081552 10 51 1.6 6.4 0.00 0.00 0.00 85 1020.3
20260507080044 11 9 0.0 4.8 0.00 0.00 0.00 85 1020.3
20260507074548 11 347 0.0 6.4 0.00 0.00 0.00 85 1020.2
20260507073041 11 17 0.0 8.0 0.00 0.00 0.00 85 1020.1
20260507071521 11 360 4.8 9.7 0.00 0.00 0.00 85 1020.0
20260507070022 11 30 0.0 6.4 0.00 0.00 0.00 85 1020.1
20260507064502 11 15 3.2 9.7 0.00 0.00 0.00 85 1020.0
20260507063000 11 17 3.2 8.0 0.00 0.00 0.00 84 1020.1
20260507061548 11 21 0.0 9.7 0.00 0.00 0.00 84 1020.1
20260507060056 11 9 3.2 9.7 0.00 0.00 0.00 84 1020.0
20260507054545 12 9 0.0 6.4 0.00 0.00 0.00 84 1020.0
20260507053046 12 16 6.4 12.9 0.00 0.00 0.00 83 1020.1
20260507051541 12 360 3.2 12.9 0.00 0.00 0.00 83 1020.0
20260507050042 12 360 1.6 8.0 0.00 0.00 0.00 84 1020.0
20260507044541 13 34 0.0 8.0 0.00 0.00 0.00 83 1019.9
20260507043054 13 21 4.8 11.3 0.00 0.00 0.00 83 1019.8
20260507041527 13 343 3.2 9.7 0.00 0.00 0.00 82 1019.6
20260507040027 13 320 3.2 11.3 0.00 0.00 0.00 82 1019.4
20260507034533 14 5 3.2 9.7 0.00 0.00 0.00 82 1019.1
20260507033026 15 355 0.0 9.7 0.00 0.00 0.00 81 1018.9
20260507031525 15 350 4.8 12.9 0.00 0.00 0.00 80 1018.7
20260507030024 16 332 4.8 9.7 0.00 0.00 0.00 79 1018.6
20260507024524 16 38 1.6 12.9 0.00 0.00 0.00 78 1018.5
20260507023024 16 84 3.2 17.7 0.00 0.00 0.00 77 1018.4
20260507021511 17 344 1.6 11.3 0.00 0.00 0.00 74 1018.5
20260507020013 17 261 0.0 6.4 0.00 0.00 0.00 72 1018.5
20260507014510 17 226 4.8 9.7 0.00 0.00 0.00 72 1018.5